Starlink 34282

operational
NORAD ID: 64454 Int'l Des: 2025-130 Owner: SPXS Country: US Constellation: starlink
LEOCIRCULAR

关于 Starlink 34282

正在加载描述...

实时位置

正在加载3D地球...

即将过境

高度历史

Altitude vs Time

uPlot chart will show altitude changes over time

两行轨道根数

1 64454U 25130S 25340.78265047 .00040344 00000-0 13652-2 0 9991
2 64454 53.1581 162.5638 0001133 74.7179 285.3947 15.30240422 26449
Epoch: Dec 6, 2025 • Age: 28 hours

当前状态

高度 494.0 km
速度 7.62 km/s
星下点 -52.93°S, 2.05°E
发射日期 Jun 18, 2025
运行时间 0.4 years
类型 internet

技术详情

分类 Payload
质量 575.00 kg
干质量 530.00 kg
总质量 575.00 kg
长度 0.30 m
直径 4.10 m
跨度 29.00 m
形状 Box + pan
制造商 SPXS
平台类型 Starlink V2MO
阶段状态 In Orbit
所有者/国家 SPXS/US

大型星座

Loading constellations...